[[{"header":{"parameterUnit":"m.s-1","parameterCategory":1,"la1":30.2991,"la2":30.254,"lo1":-89.0895,"lo2":-89.0444,"dy":0.0017,"dx":0.0017,"nx":28,"ny":28,"refTime":"2025-04-08T09:00:00:Z","depth":0,"parameterNumber":2,"parameterNumberName":"U-component_of_WINDS"},"data":[0,0,0,0,0,0,0,0,0,0,0,0,0,0,0,0,0,0,0,0,0,0,0,0,0,0,0,0,0,0,0,0,0,0,0,0,0,0,0,0,0,0,0,0,0,0,0,0,0,0,0,0,0,0,0,0,0,0,-1.5458,-1.5458,0,-1.5457,-1.5457,-1.5457,-1.5412,-1.541,-1.5409,-1.5408,-1.5407,-1.5408,-1.541,0,0,0,0,0,0,0,0,0,0,0,0,0,-1.5422,-1.5422,-1.5458,-1.5458,-1.5458,-1.5457,-1.5457,-1.5457,-1.5412,-1.541,-1.5409,-1.5408,-1.5407,-1.5408,-1.541,0,0,0,0,0,0,0,0,0,0,0,0,0,-1.5431,-1.5423,-1.5458,-1.5435,-1.5433,-1.5457,-1.5457,-1.5457,-1.5412,-1.541,-1.5409,-1.5407,-1.5407,-1.5408,-1.541,-1.5455,0,0,-1.5415,-1.5415,0,0,0,0,0,0,0,0,-1.543,-1.5432,-1.5439,-1.5437,-1.5435,-1.5433,-1.5444,-1.5456,-1.5413,-1.542,-1.5408,-1.5406,-1.5417,-1.5418,-1.5422,-1.5455,-1.5455,-1.5415,-1.5416,-1.5417,-1.5417,0,0,0,0,0,0,0,-1.543,-1.5432,-1.5458,-1.5439,-1.5436,-1.5425,-1.5425,-1.5446,-1.5429,-1.5419,-1.5416,-1.5417,-1.5416,-1.542,-1.5421,-1.5455,-1.5415,-1.5416,-1.5417,-1.5418,-1.5525,-1.5527,0,0,0,0,0,0,-1.5432,-1.5432,-1.5458,-1.5458,-1.5428,-1.5427,-1.5427,-1.5435,-1.5428,-1.5426,-1.5418,-1.5414,-1.5418,-1.5419,-1.5421,-1.5473,-1.5417,-1.5418,-1.5419,-1.5523,-1.5526,-1.5528,0,0,0,0,0,0,-1.5431,-1.5435,-1.5458,-1.5444,-1.5446,-1.543,-1.544,-1.5436,-1.544,-1.5427,-1.5424,-1.5426,-1.5417,-1.5419,-1.5447,-1.5472,-1.5419,-1.542,-1.5521,-1.5524,-1.5527,-1.5577,0,0,0,0,0,0,-1.5431,-1.5435,-1.5452,-1.5444,-1.5447,-1.5484,-1.5441,-1.5437,-1.5443,-1.5438,-1.5433,-1.5431,-1.5416,-1.5445,-1.5448,-1.5473,-1.5422,-1.5519,-1.5522,-1.5526,-1.5573,-1.5582,-1.5589,0,0,0,0,0,-1.5429,-1.5466,-1.5453,-1.5456,-1.5468,-1.5485,-1.5486,-1.5468,-1.5445,-1.5462,-1.5454,-1.5431,-1.5469,-1.5448,-1.5452,-1.5478,-1.5517,-1.5521,-1.5525,-1.557,-1.558,-1.5589,0,0,0,0,0,0,-1.5477,-1.5465,-1.545,-1.5486,-1.5487,-1.5477,-1.5498,-1.5479,-1.5487,-1.5482,-1.5459,-1.5458,-1.549,-1.5487,-1.5463,-1.5521,-1.5489,-1.5494,-1.5522,-1.5531,-1.5539,-1.5538,-1.5423,0,0,0,0,0,-1.5492,-1.5507,-1.5496,-1.5528,-1.553,-1.5514,-1.5521,-1.5507,-1.5507,-1.5507,-1.5501,-1.5502,-1.5514,-1.5523,-1.5533,-1.5573,-1.5571,-1.5593,-1.5601,-1.5607,-1.5611,-1.5632,-1.5641,-1.5541,-1.5541,-1.5541,0,0,-1.5523,-1.5518,-1.5529,-1.5538,-1.5537,-1.5553,-1.5515,-1.5534,-1.5545,-1.551,-1.5536,-1.5532,-1.5531,-1.5565,-1.558,-1.5564,-1.5639,-1.5612,-1.5618,-1.5618,-1.5637,-1.5646,-1.5655,-1.5544,-1.5544,-1.5543,0,0,-1.5586,-1.5584,-1.5611,-1.5611,-1.561,-1.5599,-1.5606,-1.56,-1.5595,-1.5621,-1.5595,-1.5608,-1.563,-1.5631,-1.5634,-1.5698,-1.5677,-1.5702,-1.5742,-1.5762,-1.577,-1.5777,-1.5799,-1.5807,-1.5707,-1.5707,-1.5707,0,-1.5624,-1.5647,-1.5627,-1.5647,-1.5652,-1.5621,-1.5648,-1.5649,-1.5652,-1.5655,-1.5637,-1.5663,-1.5661,-1.5695,-1.571,-1.5714,-1.5721,-1.5702,-1.577,-1.5777,-1.5783,-1.5804,-1.5812,-1.571,-1.571,-1.571,-1.5709,0,-1.5693,-1.571,-1.5732,-1.5735,-1.5742,-1.5765,-1.5749,-1.5759,-1.5744,-1.5735,-1.5762,-1.5758,-1.5767,-1.5774,-1.576,-1.5806,-1.5795,-1.5774,-1.5741,-1.5796,-1.5815,-1.5823,-1.5714,-1.5713,-1.5713,-1.5712,0,0,-1.5786,-1.5778,-1.5786,-1.5787,-1.5784,-1.5796,-1.5819,-1.5827,-1.5836,-1.5839,-1.5857,-1.5876,-1.5856,-1.586,-1.5846,-1.5864,-1.5914,-1.584,-1.584,-1.5853,-1.5963,-1.5977,-1.5987,-1.59,-1.5902,-1.5903,-1.5962,0,-1.5847,-1.5883,-1.5866,-1.5905,-1.592,-1.5891,-1.591,-1.591,-1.5903,-1.5915,-1.5907,-1.592,-1.5894,-1.5896,-1.5912,-1.5904,-1.5935,-1.59,-1.5916,-1.5917,-1.5915,-1.5997,-1.6013,-1.6069,-1.597,-1.5971,-1.5972,0,-1.5922,-1.5928,-1.5968,-1.5962,-1.5967,-1.5985,-1.5991,-1.6003,-1.6003,-1.5996,-1.6001,-1.5982,-1.6004,-1.5972,-1.6001,-1.5977,-1.5983,-1.598,-1.5982,-1.5982,-1.5946,-1.5998,-1.6086,-1.6094,-1.5983,-1.5982,-1.5982,0,-1.5984,-1.6002,-1.6028,-1.603,-1.6024,-1.6037,-1.6035,-1.6033,-1.604,-1.6045,-1.6049,-1.6058,-1.6062,-1.6069,-1.6054,-1.6032,-1.6084,-1.6052,-1.6079,-1.6079,-1.609,-1.6089,-1.6179,-1.6096,-1.6096,-1.6096,-1.6096,0,-1.6052,-1.6078,-1.6056,-1.6072,-1.61,-1.608,-1.6108,-1.6103,-1.6102,-1.6116,-1.6093,-1.6107,-1.6086,-1.6098,-1.6087,-1.6112,-1.6114,-1.6109,-1.6105,-1.6111,-1.6111,-1.6113,-1.6108,-1.6098,-1.6098,-1.6097,-1.6097,0,-1.6126,-1.6112,-1.6139,-1.6131,-1.613,-1.615,-1.6144,-1.6158,-1.615,-1.6168,-1.6172,-1.6158,-1.6171,-1.6157,-1.6169,-1.6161,-1.6195,-1.6186,-1.6194,-1.6191,-1.6219,-1.6216,-1.6312,-1.6324,-1.6235,-1.6236,-1.6236,0,-1.617,-1.6188,-1.6183,-1.6191,-1.619,-1.6203,-1.6209,-1.6191,-1.6198,-1.62,-1.6214,-1.6225,-1.6233,-1.6255,-1.6246,-1.6256,-1.6246,-1.6279,-1.6247,-1.6252,-1.6245,-1.6244,-1.6245,-1.6285,-1.6287,-1.6287,-1.6288,0,-1.6248,-1.6241,-1.625,-1.6258,-1.6266,-1.6271,-1.6274,-1.6282,-1.6263,-1.6273,-1.6286,-1.6292,-1.6304,-1.6315,-1.6322,-1.632,-1.6301,-1.6299,-1.6305,-1.631,-1.6313,-1.631,-1.6211,-1.6296,-1.6295,-1.6295,-1.6294,-1.6294,-1.6307,-1.6322,-1.6321,-1.6332,-1.6333,-1.6336,-1.6349,-1.6342,-1.6353,-1.6361,-1.635,-1.6366,-1.6365,-1.6372,-1.6373,-1.6385,-1.6371,-1.638,-1.6383,-1.6385,-1.6388,-1.6313,-1.6386,-1.6386,-1.6386,-1.6386,-1.6385,0,-1.6384,-1.6381,-1.6392,-1.6397,-1.6406,-1.6388,-1.6391,-1.6399,-1.6414,-1.6415,-1.6423,-1.6438,-1.6448,-1.6441,-1.645,-1.6461,-1.6452,-1.6464,-1.6462,-1.6462,-1.6401,-1.6394,-1.6471,-1.6471,-1.6471,-1.6471,-1.6471,-1.6471,-1.6424,-1.6449,-1.6441,-1.6465,-1.6463,-1.6478,-1.6481,-1.6484,-1.6485,-1.6502,-1.6511,-1.6506,-1.6504,-1.6512,-1.6521,-1.6519,-1.6523,-1.6537,-1.6531,-1.6475,-1.6466,-1.6458,-1.6451,-1.6538,-1.6539,-1.659,-1.6591,-1.6591]},{"header":{"parameterUnit":"m.s-1","parameterCategory":1,"la1":30.2991,"la2":30.254,"lo1":-89.0895,"lo2":-89.0444,"dy":0.0017,"dx":0.0017,"nx":28,"ny":28,"refTime":"2025-04-08T09:00:00:Z","depth":0,"parameterNumber":3,"parameterNumberName":"V-component_of_WINDS"},"data":[0,0,0,0,0,0,0,0,0,0,0,0,0,0,0,0,0,0,0,0,0,0,0,0,0,0,0,0,0,0,0,0,0,0,0,0,0,0,0,0,0,0,0,0,0,0,0,0,0,0,0,0,0,0,0,0,0,0,-1.3025,-1.3025,0,-1.3046,-1.3046,-1.3046,-1.3012,-1.3011,-1.3009,-1.3008,-1.3029,-1.3031,-1.3033,0,0,0,0,0,0,0,0,0,0,0,0,0,-1.2956,-1.2957,-1.3025,-1.3025,-1.3025,-1.3046,-1.3046,-1.3046,-1.3012,-1.301,-1.3009,-1.3008,-1.3029,-1.3031,-1.3033,0,0,0,0,0,0,0,0,0,0,0,0,0,-1.2982,-1.2958,-1.3025,-1.3011,-1.301,-1.3045,-1.3046,-1.3046,-1.3012,-1.301,-1.3009,-1.3007,-1.3028,-1.3031,-1.3033,-1.3084,0,0,-1.3041,-1.3042,0,0,0,0,0,0,0,0,-1.2981,-1.2985,-1.3013,-1.3012,-1.3011,-1.3024,-1.3029,-1.3059,-1.3013,-1.3011,-1.3008,-1.3006,-1.3029,-1.3031,-1.3039,-1.3085,-1.3085,-1.3041,-1.3042,-1.3044,-1.3044,0,0,0,0,0,0,0,-1.2979,-1.2984,-1.3033,-1.3013,-1.3012,-1.3003,-1.3005,-1.3035,-1.303,-1.3011,-1.3009,-1.3012,-1.3028,-1.3037,-1.3039,-1.3086,-1.3041,-1.3043,-1.3045,-1.3046,-1.3174,-1.3175,0,0,0,0,0,0,-1.2979,-1.2982,-1.3032,-1.3034,-1.2991,-1.3006,-1.3008,-1.3022,-1.3029,-1.3029,-1.3013,-1.301,-1.3034,-1.3037,-1.304,-1.31,-1.3044,-1.3046,-1.3047,-1.3172,-1.3174,-1.3176,0,0,0,0,0,0,-1.2977,-1.2984,-1.3032,-1.3007,-1.3013,-1.3009,-1.3025,-1.3023,-1.3032,-1.3031,-1.303,-1.3023,-1.3032,-1.3037,-1.3073,-1.31,-1.3047,-1.3049,-1.317,-1.3172,-1.3175,-1.322,0,0,0,0,0,0,-1.2976,-1.2983,-1.3003,-1.3008,-1.3014,-1.3065,-1.3026,-1.3025,-1.3036,-1.3032,-1.304,-1.3039,-1.3031,-1.307,-1.3076,-1.3103,-1.3051,-1.3167,-1.3171,-1.3174,-1.3216,-1.3224,-1.3231,0,0,0,0,0,-1.2973,-1.3014,-1.3004,-1.301,-1.3038,-1.3066,-1.307,-1.306,-1.3038,-1.3058,-1.3057,-1.3039,-1.3096,-1.3074,-1.308,-1.3108,-1.3165,-1.317,-1.3174,-1.3213,-1.3223,-1.3231,0,0,0,0,0,0,-1.3012,-1.3015,-1.3003,-1.3047,-1.3057,-1.306,-1.3084,-1.307,-1.3086,-1.3082,-1.3068,-1.307,-1.311,-1.3112,-1.3087,-1.3158,-1.3127,-1.3133,-1.3155,-1.3164,-1.3171,-1.317,-1.3053,0,0,0,0,0,-1.3026,-1.3048,-1.3049,-1.3088,-1.3094,-1.3088,-1.31,-1.3091,-1.3101,-1.3105,-1.3107,-1.3116,-1.3136,-1.315,-1.3168,-1.3216,-1.3217,-1.3239,-1.3246,-1.3252,-1.3258,-1.3283,-1.3293,-1.319,-1.319,-1.319,0,0,-1.3055,-1.3059,-1.3074,-1.3096,-1.3103,-1.3126,-1.3092,-1.3118,-1.3136,-1.3108,-1.3143,-1.3145,-1.3155,-1.3198,-1.3216,-1.3201,-1.3286,-1.3258,-1.3262,-1.3265,-1.3289,-1.3298,-1.3307,-1.3193,-1.3193,-1.3192,0,0,-1.3119,-1.3124,-1.3157,-1.3164,-1.3174,-1.3171,-1.3179,-1.3184,-1.3185,-1.3219,-1.3199,-1.3219,-1.3254,-1.3262,-1.3271,-1.3338,-1.3322,-1.3344,-1.3383,-1.3409,-1.3417,-1.3424,-1.3448,-1.3457,-1.335,-1.335,-1.335,0,-1.3154,-1.3189,-1.3176,-1.3204,-1.3215,-1.3191,-1.3224,-1.3232,-1.3247,-1.3255,-1.3238,-1.3281,-1.3286,-1.333,-1.3346,-1.3354,-1.3363,-1.3344,-1.3416,-1.3423,-1.343,-1.3453,-1.3463,-1.3352,-1.3352,-1.3352,-1.3352,0,-1.3231,-1.3255,-1.3281,-1.3296,-1.331,-1.334,-1.3333,-1.3347,-1.3337,-1.3335,-1.3371,-1.3376,-1.3395,-1.3404,-1.3395,-1.3447,-1.3438,-1.3419,-1.3388,-1.3443,-1.3464,-1.3473,-1.3356,-1.3355,-1.3354,-1.3354,0,0,-1.3321,-1.3329,-1.3339,-1.3346,-1.3355,-1.3374,-1.3403,-1.3422,-1.3435,-1.3446,-1.3471,-1.3501,-1.3483,-1.3493,-1.3484,-1.3506,-1.3559,-1.3484,-1.3484,-1.3499,-1.3618,-1.3633,-1.3644,-1.3548,-1.355,-1.3551,-1.3618,0,-1.3386,-1.3437,-1.3427,-1.3476,-1.3499,-1.3476,-1.3502,-1.351,-1.3509,-1.3528,-1.3526,-1.3548,-1.3523,-1.3528,-1.3549,-1.3549,-1.3583,-1.3543,-1.3572,-1.3573,-1.3571,-1.3655,-1.3671,-1.3733,-1.3626,-1.3627,-1.3628,0,-1.3468,-1.3483,-1.3535,-1.3541,-1.355,-1.3573,-1.359,-1.3608,-1.3617,-1.3614,-1.3625,-1.3612,-1.3641,-1.3609,-1.3649,-1.3622,-1.3633,-1.3635,-1.3637,-1.364,-1.3605,-1.3661,-1.3753,-1.3762,-1.3641,-1.364,-1.3639,0,-1.353,-1.3563,-1.3598,-1.3605,-1.3612,-1.3629,-1.3633,-1.364,-1.3652,-1.3666,-1.3673,-1.3691,-1.37,-1.3714,-1.3706,-1.3683,-1.3748,-1.3715,-1.3747,-1.3747,-1.3762,-1.3762,-1.3858,-1.3768,-1.3768,-1.3767,-1.3767,0,-1.3604,-1.3637,-1.3626,-1.3648,-1.3685,-1.3672,-1.3708,-1.3709,-1.3716,-1.3738,-1.3719,-1.374,-1.3727,-1.3747,-1.374,-1.3775,-1.3779,-1.3778,-1.3776,-1.3781,-1.3781,-1.3788,-1.3784,-1.377,-1.3769,-1.3769,-1.3768,0,-1.368,-1.3674,-1.3711,-1.3715,-1.3716,-1.3743,-1.3746,-1.3767,-1.3763,-1.3791,-1.3797,-1.3792,-1.3815,-1.3808,-1.3832,-1.3827,-1.3872,-1.3863,-1.3869,-1.3867,-1.39,-1.3897,-1.4005,-1.4019,-1.3919,-1.392,-1.392,0,-1.3728,-1.3753,-1.3759,-1.3773,-1.3778,-1.3799,-1.3811,-1.38,-1.3813,-1.3825,-1.3844,-1.3865,-1.3881,-1.3917,-1.3916,-1.3935,-1.3927,-1.3964,-1.393,-1.3934,-1.3929,-1.3928,-1.3931,-1.3971,-1.3972,-1.3973,-1.3974,0,-1.3815,-1.381,-1.3828,-1.3846,-1.3861,-1.3873,-1.3885,-1.3897,-1.3886,-1.3901,-1.3924,-1.3937,-1.3961,-1.3982,-1.3998,-1.4002,-1.3987,-1.3984,-1.3993,-1.3998,-1.4,-1.4,-1.3888,-1.3982,-1.3981,-1.3981,-1.398,-1.398,-1.3878,-1.39,-1.3908,-1.3928,-1.3936,-1.3946,-1.3966,-1.3965,-1.3984,-1.4003,-1.3995,-1.4021,-1.4029,-1.405,-1.4056,-1.4076,-1.4062,-1.4074,-1.4077,-1.4081,-1.4085,-1.3996,-1.4079,-1.4078,-1.4078,-1.4078,-1.4078,0,-1.3965,-1.3968,-1.3988,-1.4004,-1.402,-1.4004,-1.4015,-1.403,-1.4054,-1.4062,-1.4078,-1.4105,-1.4125,-1.4125,-1.4144,-1.416,-1.4153,-1.4165,-1.4165,-1.4166,-1.4096,-1.4088,-1.417,-1.417,-1.417,-1.417,-1.417,-1.417,-1.4011,-1.4047,-1.4043,-1.4082,-1.4085,-1.4111,-1.4119,-1.4129,-1.4136,-1.4166,-1.4183,-1.4182,-1.4188,-1.4207,-1.4225,-1.4224,-1.4232,-1.4247,-1.4244,-1.418,-1.4171,-1.4162,-1.4154,-1.4249,-1.4249,-1.4312,-1.4313,-1.4313]}]]